Regional Weather Roundup
Issued by NWS

Home | Current Version | Previous Version | Text Only | Print | Product List | Glossary On
Versions: 1 2 3 4 5 6 7 8 9 10 11 12 13 14 15 16 17 18 19 20 21 22 23 24 25 26 27 28 29 30 31 32 33 34 35 36 37 38 39 40 41 42 43 44 45 46 47 48 49 50
000
ASUS44 KFWD 261015
RWRTX
NORTH TEXAS HOURLY WEATHER ROUNDUP
NATIONAL WEATHER SERVICE FORT WORTH TX
400 AM CST SUN FEB 26 2017

NOTE: "FAIR" INDICATES FEW OR NO CLOUDS BELOW 12,000 FEET WITH NO
SIGNIFICANT WEATHER AND/OR OBSTRUCTIONS TO VISIBILITY.

TXZ118-119-261100-
DALLAS/FORT WORTH METROPLEX

CITY           SKY/WX    TMP DP  RH WIND       PRES   REMARKS
DFW AIRPORT    PTCLDY    40  28  62 SE6       29.96F WCI  36
DALLAS LOVE    PTCLDY    44  27  51 SE13      29.98F WCI  38
FTW MEACHAM    CLEAR     42  25  50 SE8       29.97F WCI  37
DAL-EXECUTIVE  CLEAR     40  28  62 SE7       29.97F WCI  35
FTW-ALLIANCE   MOCLDY    40  27  59 SE6       29.96F WCI  36
FTW-NAS-JRB    CLEAR     43  27  53 SE7       29.98F WCI  39
FTW-SPINKS     CLEAR     36  27  70 CALM      29.99F
ARLINGTON      CLEAR     36  29  75 SE3       29.98F
GRAND PRAIRIE  CLEAR     42  26  54 SE5       29.99F WCI  39
ADDISON        CLEAR     45  27  49 SE9       29.99F WCI  40
MESQUITE       CLEAR     39  29  67 SE7       30.00F WCI  34
LANCASTER      CLEAR     35  29  79 SE5       30.00F WCI  31
$$

TXZ091>094-102>105-117-120-121-131>134-261100-
NORTH CENTRAL TEXAS

CITY           SKY/WX    TMP DP  RH WIND       PRES   REMARKS
SHRMAN/DENISON CLEAR     41  24  51 SE13      29.99F WCI  34
GAINESVILLE    CLEAR     35  27  70 SE7       29.98F WCI  29
BOWIE          CLEAR     39  28  64 SE6       29.94F WCI  35
BRIDGEPORT     CLEAR     38  27  66 SE5       29.97F WCI  34
DECATUR        CLEAR     39  26  58 SE9       29.95F WCI  33
DENTON         CLEAR     37  29  72 CALM      29.97F
MCKINNEY       CLEAR     37  30  75 E5        29.99F WCI  33
BONHAM         CLEAR     36  25  64 SE8       30.01F WCI  29
GREENVILLE       N/A     34  28  80 SE5       30.01F WCI  30
ROCKWALL       CLEAR     39  28  64 E8        30.00F WCI  34
TERRELL        CLEAR     40  28  62 E7        30.01F WCI  35
WAXAHACHIE     CLEAR     37  31  78 E5        29.99F WCI  34
CLEBURNE       CLEAR     41  27  56 E7        29.99F WCI  36
GRANBURY       CLEAR     41  29  63 SE6       29.98F WCI  37
$$

TXZ083>090-098>101-113>116-127>130-139>142-154-155-261100-
WESTERN NORTH TEXAS

CITY           SKY/WX    TMP DP  RH WIND       PRES   REMARKS
WICHITA FALLS  CLEAR     33  26  75 SE6       29.92F WCI  28
WF-KICKAPOO    CLEAR     39  28  65 SE9       29.93F WCI  33
VERNON         CLEAR     37  25  63 SE5       29.90F WCI  33
ABILENE        CLEAR     45  29  53 S15       29.88F WCI  38
ABILENE-DYESS  CLEAR     48  30  49 S24G35    29.85F WCI  40
GRAHAM         CLEAR     41  30  65 SE9       29.91S WCI  35
BRECKENRIDGE   CLEAR     45  29  54 S9        29.91F WCI  40
CISCO          PTCLDY    37  30  75 S13       29.91F WCI  29
RANGER         CLEAR     37  30  75 S7        29.94F WCI  32
MINERAL WELLS  CLEAR     38  27  64 SE10      29.94F WCI  31
STEPHENVILLE   CLEAR     36  29  77 CALM      29.97F
COMANCHE       CLEAR     37  31  77 SE9       29.94F WCI  31
BROWNWOOD      CLOUDY    37  32  81 CALM      29.94F
COLEMAN        CLEAR     40  30  67 S7        29.93F WCI  35
$$

TXZ143>147-156>162-174-175-261100-
CENTRAL TEXAS

CITY           SKY/WX    TMP DP  RH WIND       PRES   REMARKS
WACO           CLEAR     40  32  73 E3        29.99F
WACO-MCGREGOR  CLEAR     37  32  82 CALM      29.98F
HILLSBORO      CLEAR     45  31  58 E13       29.98F WCI  38
CORSICANA      CLEAR     41  35  79 E8        30.02F WCI  36
MEXIA          CLEAR     41  31  67 E5        29.99F WCI  38
HEARNE         CLEAR     44  33  64 CALM      30.02S
CAMERON        CLEAR     42  35  78 SE3       30.01S
TEMPLE         CLEAR     44  30  57 SE6       29.98F
KILLEEN        CLEAR     42  30  64 SE7       29.96F WCI  37
KILLEEN-SKYLRK CLEAR     42  32  67 S3        29.97F
FORT HOOD      CLEAR     40  31  68 S3        29.94F
GATESVILLE     CLEAR     37  32  81 CALM      29.99F
HAMILTON       CLEAR     37  31  79 S5        29.97F WCI  34
LAMPASAS       CLEAR     40  33  75 S3        29.95F
$$

TXZ095>097-106>112-122>126-135>138-148>153-164>167-261100-
EAST TEXAS

CITY           SKY/WX    TMP DP  RH WIND       PRES   REMARKS
PARIS          CLEAR     36  25  64 E10       30.03F WCI  28
SULPHUR SPRNGS CLEAR     37  30  74 SE5       30.05F WCI  33
MOUNT PLEASANT PTCLDY    35  32  87 CALM      30.07F
GILMER         CLEAR     37  31  78 MISG      30.05F THUNDER
MINEOLA        CLEAR     34  32  93 CALM      30.03F
TYLER          CLEAR     41  31  67 SE7       30.03F WCI  36
LONGVIEW       CLEAR     39  31  72 SE7       30.05F WCI  34
MARSHALL       CLEAR     37  30  74 CALM      30.08F
PALESTINE      CLEAR     46  33  59 E7        30.03F
JACKSONVILLE   CLEAR     44  31  60 E3        30.05F
HENDERSON      CLEAR     40  30  67 CALM      30.06F
CENTER         SUNNY     40  38  95 CALM      30.08S
NACOGDOCHES    CLEAR     43  32  65 E9        30.03F WCI  37
LUFKIN         CLEAR     41  34  76 E7        30.05F WCI  36
$$

SUPPLEMENTAL OBSERVATIONS (CENTRAL)

CITY           SKY/WX    TMP DP  RH WIND       PRES   REMARKS
DENISON DAM      N/A     37  27  65 SE5         N/A  WCI  34
PAT MAYSE LAKE   N/A     39  19  45 E8          N/A  WCI  34
GREENVILLE       N/A     37  27  65 E5          N/A  WCI  34
CEDAR HILL       N/A     45  28  53 SE8G16      N/A
ATHENS           N/A     41  32  70 E5          N/A  WCI  38
LAKE LIMESTONE   N/A     45  32  61 SE5         N/A
MCGREGOR         N/A     39  30  70 SW1         N/A
TEMPLE           N/A     45  32  61 SE6         N/A
$$

SUPPLEMENTAL OBSERVATIONS (WEST)

CITY           SKY/WX    TMP DP  RH WIND       PRES   REMARKS
MILLERS CREEK    N/A     37  30  75 SE7         N/A  WCI  32
POSSUM KINGDOM   N/A     43  28  56 SE12        N/A  WCI  37
GRANBURY         N/A     39  28  65 SE8         N/A  WCI  34
COMANCHE         N/A     37  30  75 SE10        N/A  WCI  30
HAMBY            N/A     45  30  57 S15         N/A  WCI  38
IVIE RESERVOIR   N/A     39  30  70 E3          N/A
COLORADO BEND    N/A     43  30  61 S6          N/A  WCI  39
$$

SUPPLEMENTAL OBSERVATIONS (EAST)

CITY           SKY/WX    TMP DP  RH WIND       PRES   REMARKS
CLARKSVILLE      N/A     37  27  65 SE5         N/A  WCI  34
TEXARKANA        N/A     32  32 100 CALM        N/A
LINDEN           N/A     34  30  86 E1          N/A
CADDO LAKE       N/A     30  30 100 CALM        N/A
GILMER           N/A     37  32  81 CALM        N/A
HENDERSON        N/A     39  30  70 E1          N/A
LUFKIN           N/A     39  36  87 MISG        N/A
N SABINE NF      N/A     39  36  87 MISG        N/A
S SABINE NF      N/A     45  32  61 E3          N/A
$$

SUPPLEMENTAL OBSERVATIONS ARE A COLLECTION OF AUTOMATED INSTRUMENTS
THAT ARE MAINTAINED BY A VARIETY OF FEDERAL AND STATE AGENCIES.
CERTAIN ELEMENTS...SUCH AS HUMIDITY VALUES AND SUSTAINED WIND
SPEEDS...MAY BE APPROXIMATED.




USA.gov is the U.S. government's official web portal to all federal, state and local government web resources and services.